星链-35788(STARLINK-35788)

导读

STARLINK-35831是美国太空探索技术公司(SpaceX)于2025年11月6日发射的星链(Starlink)项目低轨通信卫星,属于全球卫星互联网星座的组成部分。它运行在近地轨道,依托星链系统的激光星间链路技术,可支持全球高速低延迟宽带互联网接入,为偏远地区、行业应用等提供通信服务,助力缩小全球数字鸿沟。

基本信息
目录编号:
66374
目录名称:
STARLINK-35831
国际标识:
2025-254AC
轨道中心:
EARTH
卫星名称:
星链-35788
卫星全名:
星链-35788(STARLINK-35788)
卫星状态:
在轨 (已飞行219 天)
发射日期:
2025-11-06 UTC
国别 :
美国 (US)
星等 :
--
轨道信息
数据来源 国际轨道数据 AOE轨道数据
星历时间 2026-06-12T13:22:09+0800
1天前
查看轨道信息
2026-06-10T06:00:00+0800
3天前
查看轨道信息
半长轴 6840.776km 6840.852km
偏心率 0.0001551 0.0001659
轨道倾角 53.158° 53.159°
近地点辐角 79.735° 65.488°
升交点赤经 150.154° 160.938°
平近点角 280.382° 143.742°
近地点 461.577km 461.58km
远地点 463.701km 463.85km
周期 93.846分钟 93.848分钟
每日圈数 15.344218 15.343963
详细信息
固有亮度:
5
最大亮度:
2.5
卫星平台:
Starlink V1.0
覆盖范围:
全球
运营商:
太空探索技术公司
运营商所在国:
美国
制造商(研发单位):
太空探索技术公司
制造商所在国:
美国
使用方式:
暂无
卫星简介
Starlink 计划是 SpaceX 推出的全球卫星互联网项目,通过发射低轨道卫星,为全球尤其是偏远地区提供高速、低延迟的互联网服务。自 2019 年起,Starlink 已部署数千颗卫星,旨在缩小全球数字鸿沟,推动互联网普及。该项目还为军事、航空等行业提供通信支持,带来广泛经济效益。
2D轨道图
3D轨道图
轨道高度分析图
轨道倾角分析图
轨道综合分析图
查看轨道综合分析图